Theta_e
346 346 345 345 344 341 340 340 337 336 337 337 337 338 338 337 336 337 338 338 338 338 338 338 338 338 336 334 335 338 339 340 338 335 335 338 341 341 341 342 344 345
341 341 340 340 341 339 341 342 338 334 336 337 336 337 337 336 336 337 338 339 339 338 339 339 338 336 331 328 332 335 335 335 335 335 336 338 338 339 339 340 342 343
339 339 337 334 333 334 336 337 334 333 336 337 336 336 337 337 337 338 338 338 337 336 335 334 332 331 328 327 331 333 334 334 335 336 338 339 339 338 338 337 338 339
338 338 337 332 331 331 333 336 336 337 338 337 336 336 336 337 337 337 336 336 335 333 331 330 331 333 333 331 332 334 336 337 337 336 336 337 339 339 338 336 336 337
334 333 331 329 328 331 336 338 337 337 337 336 335 335 336 336 336 335 334 336 335 334 332 333 335 336 335 332 330 331 332 333 333 332 331 331 333 335 335 334 335 336
337 334 328 327 327 329 335 336 335 337 337 335 335 334 335 335 334 333 333 335 335 334 334 336 336 334 333 332 331 330 330 330 330 328 327 328 329 331 334 335 336 336
340 338 331 329 328 329 334 336 336 337 336 335 335 334 334 334 333 333 334 336 336 336 336 336 335 334 333 333 333 333 331 329 329 328 328 328 329 330 333 336 337 337
338 339 334 333 331 332 337 338 336 336 335 335 335 334 334 334 333 334 335 337 337 337 337 337 336 336 334 334 335 334 333 332 331 330 329 329 329 329 330 333 335 336
334 337 336 334 331 332 337 338 336 336 336 335 335 334 335 335 335 335 336 337 337 337 337 336 336 336 334 335 335 335 335 334 334 333 331 330 330 330 329 330 332 333
335 337 336 334 332 331 335 337 335 336 337 336 336 335 335 335 335 336 336 337 336 335 335 335 335 335 334 335 335 336 336 336 336 335 333 332 332 333 331 330 330 330
335 337 336 336 334 332 334 335 335 335 337 337 337 336 336 336 336 336 336 335 334 333 333 334 333 333 334 334 335 335 336 335 335 335 334 332 333 334 333 332 332 332
335 336 335 335 334 333 334 335 334 335 335 334 334 334 333 333 333 333 333 333 332 332 332 332 332 333 333 332 332 332 332 332 331 332 332 332 333 334 333 332 332 332
336 336 335 334 333 333 334 334 334 334 332 331 331 331 330 330 330 331 331 330 330 329 330 330 331 331 332 332 332 332 332 332 331 331 332 333 333 333 333 332 332 331
337 337 336 334 334 334 333 333 332 331 330 330 329 329 329 328 329 329 328 328 327 327 329 331 332 333 334 334 334 335 335 334 334 333 332 332 332 332 332 331 330 330
338 338 335 334 334 334 334 334 332 330 329 328 328 328 328 329 328 328 328 328 328 329 331 333 334 335 336 335 335 334 334 334 333 332 331 330 330 331 330 330 329 329
339 338 336 334 334 334 335 335 333 330 329 327 328 328 329 329 329 330 331 331 330 331 333 334 334 334 334 334 334 333 333 332 332 331 331 330 330 330 329 329 329 329
339 339 338 337 335 335 335 335 333 331 328 327 327 328 328 328 329 330 331 330 330 332 334 334 334 333 332 332 332 332 332 332 332 331 331 330 330 330 329 329 329 328
340 340 341 340 338 336 335 335 333 331 328 327 328 329 328 328 329 330 330 330 332 333 333 333 332 331 331 331 331 331 331 331 331 330 330 330 329 329 329 329 328 328
342 342 342 341 340 338 336 334 332 330 329 330 331 331 330 331 331 332 332 333 333 333 331 331 330 330 330 330 330 330 330 329 329 328 328 328 327 327 326 326 326 326
343 343 342 342 342 340 338 337 333 331 332 332 331 332 332 333 333 332 331 331 331 330 329 328 328 328 329 328 328 328 327 327 327 328 328 328 327 327 327 327 327 327
344 344 343 343 342 341 341 338 333 331 331 331 331 332 333 332 330 328 328 328 328 328 327 327 327 327 327 327 327 327 327 328 328 328 328 329 328 328 329 329 328 328
344 343 343 342 342 342 340 336 331 329 329 329 329 329 328 327 326 326 327 327 327 327 327 327 327 327 327 327 327 327 327 327 327 327 328 329 329 329 329 329 329 329
344 342 342 343 342 341 338 332 328 327 326 325 325 325 326 327 327 328 328 328 328 328 327 327 327 327 327 327 327 326 326 325 325 326 327 328 328 328 329 329 329 329
344 342 342 342 342 339 333 327 325 324 324 324 325 326 327 328 328 328 328 327 327 327 327 327 327 327 327 326 326 325 324 323 323 324 325 326 326 326 327 327 327 327
343 342 342 342 339 333 327 325 325 325 325 326 327 327 328 328 328 329 328 327 327 326 327 327 327 327 326 325 325 324 323 322 322 322 323 323 323 324 324 324 325 325
343 343 341 337 331 326 325 325 326 326 327 327 327 327 328 328 329 329 328 327 326 326 326 326 326 325 324 323 323 322 322 321 321 321 322 321 322 322 322 323 323 323
Wind_Speed
11 9 7 7 7 7 6 6 7 6 6 6 3 2 2 2 3 6 6 7 7 8 9 9 9 10 12 14 13 12 12 13 13 11 9 9 10 11 11 11 10 9
9 8 7 8 10 10 9 8 7 7 5 5 6 4 3 2 3 5 6 6 8 9 10 12 14 16 16 15 13 12 12 12 12 10 9 9 9 11 12 13 12 12
8 8 7 8 9 10 9 6 5 6 5 5 5 4 3 1 3 5 6 8 9 10 12 14 14 13 12 11 10 11 11 12 11 11 10 11 11 12 12 13 13 13
8 8 8 7 7 6 8 8 7 6 5 3 3 5 5 5 5 6 7 8 9 10 12 11 9 9 10 11 12 13 14 14 15 15 15 15 15 15 15 14 13 13
3 4 5 5 4 7 9 7 4 4 3 4 4 6 8 8 9 9 8 7 9 11 10 8 8 11 13 13 12 12 13 14 15 15 15 15 16 16 16 15 14 13
3 1 2 2 4 8 7 4 3 2 2 4 5 7 8 11 13 12 9 8 9 9 7 8 11 13 14 13 11 10 10 11 12 13 14 14 15 15 14 13 13 13
1 0 2 3 5 8 7 4 3 3 3 4 7 9 10 12 12 10 7 7 8 8 8 10 12 14 15 14 12 13 12 12 12 12 13 14 16 16 15 15 15 15
2 1 1 2 3 8 7 3 1 2 4 6 8 9 9 10 11 9 8 9 11 12 13 14 14 15 17 15 13 15 14 13 13 14 14 13 14 16 17 17 17 17
4 1 1 2 1 7 7 3 2 3 5 6 7 8 9 9 10 11 11 12 14 15 16 15 14 15 16 15 14 15 17 16 16 17 16 14 13 13 14 14 16 17
5 3 3 3 1 5 7 6 5 5 6 7 8 10 11 11 12 13 15 16 17 16 15 13 12 14 15 15 15 17 19 19 20 20 18 15 13 13 14 13 14 14
6 5 3 3 3 3 4 5 6 6 8 10 12 13 13 14 15 16 17 17 16 14 13 12 12 13 14 15 16 17 19 20 21 21 20 16 13 13 15 16 16 16
7 5 3 4 5 4 4 5 7 9 10 11 12 12 13 14 14 14 14 14 13 12 12 13 13 14 14 15 16 16 16 16 17 18 18 15 13 14 16 17 17 18
6 5 4 5 5 5 5 6 8 9 10 10 10 10 10 11 11 11 11 11 11 11 11 12 13 13 14 14 14 15 15 14 13 14 15 14 14 15 16 17 18 20
7 6 6 5 4 5 5 6 8 9 10 10 10 10 10 10 11 11 11 11 11 11 11 12 13 14 14 14 14 15 15 14 13 14 14 16 16 16 17 18 19 20
8 7 6 5 5 5 6 7 8 10 10 10 10 11 11 11 11 11 12 12 12 13 13 14 14 14 13 13 14 14 14 15 15 15 15 16 16 16 16 16 17 19
8 7 6 5 5 6 6 7 9 11 12 12 11 12 12 13 13 13 14 14 14 14 13 13 12 12 13 13 14 16 17 17 18 17 17 16 15 16 17 17 18 20
9 9 8 7 6 6 6 8 10 12 12 13 12 12 13 13 14 14 15 15 14 13 13 13 13 14 15 15 16 17 18 18 18 18 18 18 18 18 19 21 22 23
11 10 9 9 7 6 7 9 11 12 12 12 12 12 13 13 14 15 15 14 13 13 14 15 15 15 14 15 15 16 17 19 20 21 21 21 21 21 22 22 23 24
11 11 11 10 9 7 8 10 11 12 12 12 12 12 13 14 14 14 14 14 14 15 15 16 15 15 15 16 17 18 19 21 23 23 22 22 21 21 21 21 22 23
12 12 12 12 10 9 10 11 12 12 12 12 13 13 14 15 15 16 16 16 15 15 16 16 16 16 17 17 18 18 19 20 20 20 20 20 20 20 19 20 20 21
15 13 12 13 12 10 11 12 12 12 12 13 13 14 15 16 15 15 15 15 15 15 16 16 15 15 14 14 14 15 15 16 16 17 18 19 19 19 19 19 20 20
17 13 13 15 13 10 11 13 12 12 12 14 14 14 14 13 12 13 14 14 14 14 15 15 14 13 13 13 13 14 15 16 16 16 16 17 17 17 18 18 19 19
17 13 13 15 12 10 12 13 12 12 12 13 12 11 10 10 11 13 14 14 14 14 15 15 14 13 12 13 15 16 18 18 19 18 16 16 16 17 18 18 18 19
14 12 13 12 10 11 12 12 11 10 9 8 8 9 9 10 12 13 14 14 14 14 14 14 14 13 14 16 18 19 20 21 21 19 17 17 17 18 18 19 20 20
10 11 12 11 11 11 10 9 7 7 7 8 8 9 10 10 12 13 14 14 14 14 13 13 14 15 17 20 20 20 21 21 18 16 16 17 18 19 19 20 21 22
7 10 10 9 9 8 6 6 6 7 8 9 10 11 12 12 12 13 13 13 13 14 14 15 17 19 20 20 20 19 20 19 17 17 18 19 19 20 21 22 22 23
Wind_Direction
167 175 187 198 207 217 214 203 206 217 212 204 226 274 235 236 257 241 241 249 256 264 267 270 277 287 292 286 276 271 271 274 280 278 260 250 254 256 257 256 255 257
181 189 203 213 217 221 224 224 229 232 227 212 222 261 295 303 270 251 247 258 271 274 273 278 285 291 292 284 272 267 268 271 273 268 260 256 255 256 258 258 256 256
195 206 215 213 212 218 216 206 190 184 190 203 225 268 306 278 252 263 271 280 282 280 283 287 288 292 295 286 277 273 273 276 275 270 267 265 265 267 266 264 263 260
203 211 217 216 209 189 168 163 156 154 170 205 248 273 285 287 290 295 299 297 292 293 295 294 294 301 305 298 287 278 275 277 278 276 273 268 268 269 270 271 272 270
178 199 213 223 202 169 161 162 165 167 192 223 244 263 273 285 295 294 291 286 289 296 299 299 299 300 301 301 294 282 278 282 283 282 277 269 264 265 268 272 272 270
97 103 189 183 166 170 168 151 162 199 235 233 248 272 277 284 291 284 271 271 280 288 294 294 297 302 305 309 309 305 307 309 305 300 292 281 273 268 267 269 270 269
116 297 143 120 135 158 162 154 190 241 285 266 273 287 285 288 293 282 267 281 288 288 293 293 295 305 311 313 319 322 325 328 326 319 307 293 283 275 272 272 273 272
215 200 80 33 134 164 168 150 184 256 283 280 283 288 285 290 292 281 275 287 292 292 294 293 292 298 302 305 313 315 315 321 326 325 317 305 294 285 280 279 277 274
222 211 321 330 197 181 186 184 185 245 274 276 274 276 280 282 279 279 283 289 295 297 295 290 285 288 292 295 301 304 306 310 313 315 315 311 309 306 297 288 284 280
227 249 279 312 308 184 195 216 233 254 275 278 280 285 288 285 283 288 292 294 297 297 294 288 282 284 286 287 292 297 300 302 302 304 305 302 304 309 307 304 303 301
217 228 253 299 298 225 213 241 263 275 280 282 285 287 287 287 288 290 292 293 293 293 291 289 287 288 288 287 291 293 293 295 295 296 295 291 290 296 301 307 312 312
211 215 242 284 280 273 278 286 290 291 290 289 287 285 285 286 287 288 289 291 292 292 293 293 293 293 294 293 293 293 294 297 299 297 291 284 285 293 299 305 307 307
217 228 253 266 268 286 300 300 301 299 299 300 298 295 293 292 291 292 291 292 294 296 298 299 299 299 300 301 300 302 304 305 306 303 292 284 288 295 297 298 299 300
222 238 254 264 277 299 305 304 307 308 307 307 306 305 304 302 301 299 298 299 301 304 306 306 306 306 308 308 306 305 305 303 303 301 296 293 294 295 295 295 296 298
220 232 249 270 285 292 297 302 310 314 313 311 310 310 309 308 307 306 307 307 306 305 305 305 306 308 309 308 305 304 303 301 300 297 294 294 296 297 296 296 298 299
229 236 250 268 283 289 293 303 313 317 316 315 313 311 310 309 311 312 311 308 306 304 304 306 309 308 304 300 299 302 302 299 297 295 292 290 290 292 293 294 296 299
241 247 255 262 276 296 301 304 312 315 312 309 305 304 306 307 308 307 306 305 307 307 306 306 305 302 299 296 296 297 297 297 297 297 296 294 292 292 292 294 296 298
243 250 259 263 273 296 303 301 305 307 306 304 303 302 302 302 301 301 304 306 306 304 302 300 299 299 298 297 296 296 296 296 298 299 299 298 296 295 294 295 296 297
243 253 263 269 274 290 298 297 300 303 305 307 305 302 300 301 302 303 304 303 300 299 300 301 301 300 298 296 296 296 296 297 299 300 300 299 298 297 296 296 297 298
244 253 266 270 271 281 290 294 298 301 305 306 303 302 303 304 305 306 306 304 301 302 305 306 306 305 302 300 300 301 302 303 303 302 301 302 301 301 300 299 300 300
243 250 259 259 263 276 285 292 299 301 302 302 303 304 305 307 312 316 318 315 312 312 313 314 317 319 317 315 314 314 315 313 310 306 304 304 304 303 302 301 300 299
247 251 251 251 263 283 288 292 300 301 301 305 308 311 314 322 335 340 336 332 327 325 324 325 330 334 333 330 327 326 325 321 317 313 310 309 308 305 303 301 299 299
252 252 248 255 275 290 288 293 302 305 309 318 325 333 343 351 353 349 343 339 335 333 332 333 336 337 332 328 327 326 326 325 323 318 315 314 313 311 307 305 302 301
256 252 249 262 283 290 293 304 313 317 329 345 354 357 356 349 343 342 343 342 341 340 338 334 331 330 326 325 325 324 326 327 324 318 315 314 313 312 309 307 306 305
256 250 253 270 289 297 308 323 335 347 359 5 0 348 338 332 329 332 337 342 343 340 335 328 324 323 321 321 322 325 329 331 327 323 323 323 320 316 313 310 308 307
247 253 268 290 306 317 341 3 9 5 356 350 345 334 324 321 320 324 331 336 335 330 327 324 322 321 320 321 324 330 334 335 334 332 333 333 329 324 320 315 311 308